AO-07 1 07530U 74089B 23068.83759877 -.00000038 00000-0 53114-4 0 9996 2 07530 101.9405 54.8715 0011915 253.5662 176.2147 12.53661939210964 UO-11 1 14781U 84021B 23067.90908365 .00005983 00000-0 71635-3 0 9994 2 14781 97.6480 48.8088 0008603 160.3211 199.8337 14.84442301 79269 AO-16 1 20439U 90005D 23068.18971147 .00000576 00000-0 22715-3 0 9997 2 20439 98.8772 55.8921 0011551 132.4915 287.5414 14.33035401730835 LO-19 1 20442U 90005G 23068.68888726 .00000638 00000-0 24865-3 0 9993 2 20442 98.8336 43.1382 0012795 108.6552 251.6022 14.33190237731151 HUBBLE 1 20580U 90037B 23068.13794338 .00012562 00000-0 69669-3 0 9996 2 20580 28.4689 213.2662 0002825 28.8231 139.7024 15.12256399606569 MET-2/21 1 22782U 93055A 23068.00322547 .00000125 00000-0 99448-4 0 9991 2 22782 82.5523 164.2825 0021389 327.8359 205.5048 13.83874964490860 AO-27 1 22825U 93061C 23067.82168051 .00000417 00000-0 17871-3 0 9996 2 22825 98.8558 109.0279 0008470 8.6239 351.5087 14.30260249535945 IO-26 1 22826U 93061D 23067.85023648 .00000606 00000-0 24981-3 0 9992 2 22826 98.8504 108.9229 0008732 354.0159 6.0917 14.30616430536212 FO-29 1 24278U 96046B 23068.51641394 .00000095 00000-0 13546-3 0 9996 2 24278 98.5212 60.6881 0349493 315.6072 41.7531 13.53136807311707 NOAA-15 1 25338U 98030A 23068.75239997 .00000463 00000-0 21133-3 0 9997 2 25338 98.6182 99.4564 0009463 240.5050 119.5186 14.26262336291088 GO-32 1 25397U 98043D 23068.15426531 .00000489 00000-0 23341-3 0 9993 2 25397 98.8565 24.8168 0002326 74.5119 285.6316 14.23835082281310 ISS 1 25544U 98067A 23068.82500000 .00042917 00000-0 77931-3 0 9997 2 25544 51.6392 100.7438 0005811 66.9477 293.1209 15.49117990386374 NO-44 1 26931U 01043C 23068.52719896 .00000544 00000-0 23865-3 0 9995 2 26931 67.0497 94.1424 0006650 283.4400 76.5960 14.30845887119482 SO-50 1 27607U 02058C 23068.10183268 .00007466 00000-0 10272-2 0 9992 2 27607 64.5553 211.6907 0076817 244.3239 114.9916 14.76888265 87656 CO-55 1 27844U 03031E 23067.96360106 .00001470 00000-0 67602-3 0 9997 2 27844 98.6810 76.6817 0010844 59.9132 300.3120 14.22667682 21512 CO-57 1 27848U 03031J 23068.78488914 .00000903 00000-0 42657-3 0 9993 2 27848 98.6848 77.9423 0010811 71.2061 289.0289 14.22193251 21421 RS-22 1 27939U 03042A 23068.88914391 .00003597 00000-0 63526-3 0 9990 2 27939 98.2245 215.2158 0013537 92.0867 268.1903 14.68013001 39978 NOAA-18 1 28654U 05018A 23068.78393185 .00000494 00000-0 28915-3 0 9997 2 28654 98.9176 143.6320 0013269 302.9421 57.0474 14.12882370917536 CO-58 1 28895U 05043F 23068.79408937 .00004912 00000-0 91996-3 0 9993 2 28895 98.1362 201.7393 0016662 29.1901 331.0230 14.65175418926484 CO-65 1 32785U 08021C 23068.12538761 .00014814 00000-0 14893-2 0 9993 2 32785 97.6953 36.3581 0014514 77.9577 282.3267 14.91251625805974 AAUSAT2 1 32788U 08021F 23068.40602519 .00021719 00000-0 16862-2 0 9990 2 32788 97.5575 50.2572 0006338 351.3340 8.7774 15.01338142808229 DO-64 1 32789U 08021G 23068.77462133 .00085334 00000-0 33318-2 0 9995 2 32789 97.3163 91.6647 0010550 114.0043 246.2300 15.25501104812278 CO-66 1 32791U 08021J 23068.81535904 .00017729 00000-0 16141-2 0 9998 2 32791 97.6469 42.2995 0013701 34.3386 325.8718 14.95154789806882 RS-30 1 32953U 08025A 23068.80946605 .00000024 00000-0 10000-3 0 9994 2 32953 82.5069 18.8978 0020474 42.5494 317.7173 12.43120012671302 PRISM 1 33493U 09002B 23068.28092299 .00022082 00000-0 16003-2 0 9999 2 33493 98.2519 75.9598 0017872 28.7223 331.4981 15.03842986768725 NOAA-19 1 33591U 09005A 23068.74525661 .00000430 00000-0 25657-3 0 9995 2 33591 99.1143 113.0228 0014320 159.3717 200.8035 14.12704993725901 SRMSAT 1 37841U 11058D 23068.72863213 .00000726 00000-0 25372-3 0 9996 2 37841 19.9720 91.3342 0011957 19.8730 137.1932 14.10848521588973 HRBE 1 37855U 11061F 23068.59505978 .00057084 00000-0 20433-2 0 9992 2 37855 101.7061 335.0014 0132351 344.4836 15.2344 15.20603152621866 RS-40 1 38735U 12041C 23068.71649479 .00000034 00000-0 17457-3 0 9994 2 38735 82.4727 100.1266 0017981 150.2929 209.9181 12.42591813481467 ZACUBE-1 1 39417U 13066B 23068.14048289 .00007973 00000-0 93873-3 0 9994 2 39417 97.6744 33.4477 0053871 256.0377 103.4843 14.84018494502356 Delfi-N3xt 1 39428U 13066N 23068.25491896 .00008731 00000-0 12839-2 0 9999 2 39428 97.8317 356.7430 0113912 149.3442 211.4487 14.71288998497616 GOMX-1 1 39430U 13066Q 23068.78298656 .00005594 00000-0 98347-3 0 9992 2 39430 97.7915 325.6892 0145807 287.9232 70.6124 14.61265644495021 LO-74 1 39440U 13066AA 23068.78827638 .00011894 00000-0 15547-2 0 9991 2 39440 97.7628 20.9051 0076465 351.9218 8.0756 14.78537973500662 AO-73 1 39444U 13066AE 23068.81692964 .00011837 00000-0 13423-2 0 9999 2 39444 97.6613 36.5724 0052418 239.4529 120.1508 14.85495978501473 SPROUT 1 39770U 14029E 23068.76964494 .00038420 00000-0 33010-2 0 9996 2 39770 97.9562 193.5847 0008328 279.5174 80.5603 14.97286411477259 DTUSAT-2 1 40030U 14033W 23068.79501109 .00011976 00000-0 11876-2 0 9998 2 40030 97.9607 8.1936 0009059 259.1380 100.8819 14.91907567473689 EO-80 1 40032U 14033Y 23068.16726648 .00011052 00000-0 10973-2 0 9990 2 40032 97.9606 7.5765 0008976 262.5899 97.4300 14.91882782473578 HODOYOSHI-1 1 40299U 14070B 23068.81366547 .00019537 00000-0 65180-3 0 9993 2 40299 97.2073 134.1706 0009848 272.1709 196.2762 15.31056316463594 FIREBIRD FU3 1 40377U 15003B 23068.79357934 .00123762 00000-0 21127-2 0 9992 2 40377 99.0773 0.3252 0067101 194.3674 165.5665 15.48338349449154 FIREBIRD FU4 1 40378U 15003C 23068.80097218 .00119347 00000-0 20315-2 0 9993 2 40378 99.0787 0.6237 0067187 193.7380 166.2040 15.48425929449164 GRIFEX 1 40379U 15003D 23068.70548735 .00059207 00000-0 16019-2 0 9992 2 40379 99.0811 342.1873 0093007 252.0346 107.0737 15.33155058448100 XW-2A 1 40903U 15049E 23068.80868043 .00221140 00000-0 10945-2 0 9992 2 40903 97.1309 135.3872 0006929 197.6086 270.3507 15.81414849420688 XW-2C 1 40906U 15049H 23068.78895215 .00021624 00000-0 90481-3 0 9992 2 40906 97.4970 75.7740 0013702 143.8103 29.1833 15.23506781413248 XW-2D 1 40907U 15049J 23068.84154115 .00025548 00000-0 10255-2 0 9996 2 40907 97.4951 76.1298 0013064 137.1750 340.3837 15.24879424413325 LILACSAT-2 1 40908U 15049K 23068.24024396 .00011295 00000-0 55363-3 0 9992 2 40908 97.5254 71.6754 0014541 170.7583 245.4311 15.18211612412624 XW-2E 1 40909U 15049L 23068.81424170 .00044264 00000-0 14301-2 0 9998 2 40909 97.4605 81.5338 0012326 112.9175 325.8146 15.31893194413891 XW-2F 1 40910U 15049M 23068.78909284 .00043832 00000-0 14419-2 0 9990 2 40910 97.4694 80.7171 0013141 114.0496 59.1881 15.31303871413646 XW-2B 1 40911U 15049N 23068.81733475 .00025180 00000-0 10161-2 0 9998 2 40911 97.4939 76.6005 0013125 138.7348 300.3027 15.24702903413206 DCBB 1 40912U 15049P 23068.81290745 .00053130 00000-0 15144-2 0 9999 2 40912 97.4272 85.1555 0012887 82.5479 3.9185 15.35815704414317 IO-86 1 40931U 15052B 23068.63826098 .00002101 00000-0 20126-3 0 9999 2 40931 5.9959 77.1291 0013315 322.3105 37.6935 14.77081612402615 ATHENOXAT-1 1 41168U 15077C 23068.80668003 .00109862 00000-0 28820-2 0 9998 2 41168 14.9836 268.5456 0007558 31.7082 69.7951 15.36766966400900 ChubuSat-2 1 41338U 16012B 23068.23100407 .00008712 00000-0 62467-3 0 9991 2 41338 31.0023 136.4374 0012582 260.7846 99.1367 15.03014087387326 ChubuSat-3 1 41339U 16012C 23068.88276186 .00007535 00000-0 54015-3 0 9993 2 41339 31.0110 129.2495 0012877 273.8864 86.0312 15.02965971387422 Horyu-4 1 41340U 16012D 23068.25151590 .00014119 00000-0 93387-3 0 9998 2 41340 31.0035 105.3567 0011537 317.8628 42.1121 15.06141176387635 e-st@r-II 1 41459U 16025D 23068.61500123 .00046965 00000-0 15867-2 0 9993 2 41459 98.1924 260.2554 0120426 84.6040 276.8927 15.23739015377700 AAUSAT4 1 41460U 16025E 23068.54012719 .00098477 00000-0 22867-2 0 9999 2 41460 98.1751 269.8304 0086408 47.8430 5.9604 15.38115133378364 LO-87 1 41557U 16033B 23068.79380266 .00073594 00000-0 14290-2 0 9991 2 41557 97.3832 173.6848 0009156 149.6935 6.2526 15.47341135378194 NuSat2 1 41558U 16033C 23068.76400981 .00080279 00000-0 14521-2 0 9991 2 41558 97.4110 180.9478 0008254 140.7414 15.0413 15.49363989378508 Lapan A3 1 41603U 16040E 23068.74841919 .00004997 00000-0 22283-3 0 9996 2 41603 97.1782 98.8856 0011511 312.2495 158.9878 15.21779982372367 Pratham 1 41783U 16059A 23068.22680151 .00001984 00000-0 38648-3 0 9992 2 41783 97.8816 103.7385 0034332 58.4794 301.9755 14.63732292344351 TY-1 1 41844U 16066D 23068.82370609 .00069880 00000-0 15971-2 0 9990 2 41844 97.3782 86.1061 0012446 65.9287 106.8128 15.42512813352306 CAS-2T 1 41847U 16066G 23068.77654895 .00004494 00000-0 67283-3 0 9993 2 41847 98.5145 137.7823 0362003 135.5169 227.5700 14.39322470332504 EO-88 1 42017U 17008BX 23067.99706409 .00162012 00000-0 26098-2 0 9991 2 42017 97.2275 136.9844 0002123 25.4594 334.6763 15.52366141337807 CAS-4B 1 42759U 17034B 23068.81374547 .00017164 00000-0 90455-3 0 9995 2 42759 43.0182 307.3023 0010182 185.6242 261.9243 15.15282409316559 CAS-4A 1 42761U 17034D 23068.83409050 .00016395 00000-0 86270-3 0 9993 2 42761 43.0176 305.7638 0010754 187.2201 267.0485 15.15359082316565 NIUSat 1 42766U 17036B 23068.30669829 .00039424 00000-0 12046-2 0 9991 2 42766 97.1712 102.1838 0013466 102.8065 257.4683 15.33685602317273 Aalto 1 1 42775U 17036L 23068.76497502 .00034191 00000-0 11227-2 0 9994 2 42775 97.1662 101.8798 0012933 102.4748 257.7942 15.31420236317280 URSA MAIOR 1 42776U 17036M 23068.54011371 .00038864 00000-0 12259-2 0 9994 2 42776 97.1673 102.7509 0012420 101.5362 258.7276 15.32688392317300 Max Valier Sat 1 42778U 17036P 23068.06841369 .00048975 00000-0 14844-2 0 9997 2 42778 97.1716 105.5283 0010976 104.0707 256.1757 15.33921556317359 Pegasus 1 42784U 17036V 23068.55374557 .00068054 00000-0 17570-2 0 9997 2 42784 97.1636 107.6894 0009854 98.8665 261.3697 15.38851713317616 NUDATSat 1 42787U 17036Y 23068.85991457 .00162685 00000-0 22893-2 0 9996 2 42787 97.1619 115.3952 0005911 92.6024 267.5907 15.56081253317966 SUCHAI 1 1 42788U 17036Z 23068.72136401 .00092252 00000-0 20147-2 0 9995 2 42788 97.1621 110.5704 0008415 93.3282 266.8929 15.43821130317887 SKCUBE 1 42789U 17036AA 23067.89948118 .00091194 00000-0 21712-2 0 9992 2 42789 97.1627 108.7304 0009043 97.3042 262.9234 15.41230364317613 VZLUSAT 1 1 42790U 17036AB 23067.57243567 .00189521 00000-0 27821-2 0 9994 2 42790 97.1600 113.9506 0005850 89.6869 270.5056 15.54832103317903 VENTA 1 1 42791U 17036AC 23067.86984905 .00076136 00000-0 19599-2 0 9995 2 42791 97.1641 108.1620 0009126 98.7548 261.4732 15.38913244317567 Robusta 1B 1 42792U 17036AD 23068.09367078 .00117558 00000-0 26307-2 0 9997 2 42792 97.1613 109.8154 0008288 96.4652 263.7540 15.42993656317715 D-SAT 1 42794U 17036AF 23068.48737778 .00009365 00000-0 75985-3 0 9993 2 42794 97.4624 65.2809 0116805 277.1034 81.6917 14.94602820311064 TechnoSat 1 42829U 17042E 23068.82005234 .00006253 00000-0 60590-3 0 9991 2 42829 97.3956 272.1952 0013240 194.1339 165.9513 14.92966314307661 AO-91 1 43017U 17073E 23068.75562184 .00018071 00000-0 12833-2 0 9996 2 43017 97.6452 317.0459 0240010 37.5246 324.2452 14.84362597286426 PICSAT 1 43132U 18004X 23068.19352389 .00074917 00000-0 16087-2 0 9997 2 43132 97.3411 149.4761 0006438 133.5165 226.6619 15.44409025287044 AO-92 1 43137U 18004AC 23068.16806661 .00051078 00000-0 13356-2 0 9995 2 43137 97.3377 146.7751 0007229 140.2839 219.8937 15.38562615286887 TianYi 2 1 43155U 18008A 23068.84180354 .00030650 00000-0 13640-2 0 9997 2 43155 97.3145 123.9530 0012922 299.4675 173.7242 15.21345052283524 Zhou Enlai 1 43156U 18008B 23068.81001729 .00033906 00000-0 15030-2 0 9995 2 43156 97.3194 123.9194 0010339 299.6982 171.8754 15.21481895283442 TianYi 6 1 43158U 18008D 23068.91411214 .00027015 00000-0 12737-2 0 9997 2 43158 97.3179 121.3528 0010111 304.6895 228.4605 15.19409898283329 S-Net D 1 43186U 18014G 23068.05887428 .00012508 00000-0 10210-2 0 9999 2 43186 97.6419 333.6925 0010837 129.9502 230.2675 14.99513834278546 S-Net B 1 43187U 18014H 23068.72680144 .00009207 00000-0 75306-3 0 9990 2 43187 97.6411 334.2852 0011068 127.7860 232.4368 14.99515547278642 S-Net A 1 43188U 18014J 23068.72706744 .00009230 00000-0 75486-3 0 9991 2 43188 97.6415 334.3657 0011063 127.9508 232.2716 14.99516809278644 S-Net C 1 43189U 18014K 23068.72852132 .00009342 00000-0 76407-3 0 9993 2 43189 97.6409 334.2709 0011293 127.7403 232.4846 14.99509018277191 FMN 1 1 43192U 18015A 23068.62032056 .01157790 64374-3 29104-2 0 9992 2 43192 97.5444 231.6903 0007199 260.6066 159.7973 15.95736305284559 Shaonian Xing 1 43199U 18015H 23068.77583701 .00113482 00000-0 18516-2 0 9990 2 43199 97.5361 221.7775 0010037 184.8326 282.4303 15.52135666284289 CubeBel-1 1 43666U 18083E 23068.74227068 .00042695 00000-0 13955-2 0 9991 2 43666 97.3938 100.1596 0012742 113.7320 357.3952 15.31522689241947 Changshagaoxin 1 43669U 18083H 23068.85765841 .00038663 00000-0 13673-2 0 9999 2 43669 97.3925 95.3693 0010066 111.5865 61.8302 15.29017106241739 Ten-Koh 1 43677U 18084G 23068.60492197 .00007900 00000-0 77649-3 0 9997 2 43677 97.9954 206.8140 0016443 116.1447 244.1465 14.92316474237206 PO-101 1 43678U 18084H 23068.74598659 .00004004 00000-0 39090-3 0 9993 2 43678 98.0025 210.8365 0010542 127.9727 232.2451 14.92960417237426 QO-100 1 43700U 18090A 23068.63313177 .00000149 00000-0 00000 0 0 9995 2 43700 0.0130 222.3922 0001062 120.8693 77.5001 1.00272356 15934 Reaktor Hello World 1 43743U 18096AA 23068.22205455 .00071724 00000-0 14413-2 0 9995 2 43743 97.3261 153.2977 0012221 184.4902 175.6240 15.46315380238667 MinXSS-2 1 43758U 18099A 23068.65147402 .00015913 00000-0 12823-2 0 9999 2 43758 97.5873 135.0236 0016527 99.1201 261.1893 14.99889191232816 AO-95 1 43770U 18099N 23068.64902380 .00013743 00000-0 11481-2 0 9994 2 43770 97.5840 132.8884 0015182 106.4904 253.7988 14.98550426232699 RANGE-B 1 43772U 18099Q 23068.15600015 .00013925 00000-0 11249-2 0 9996 2 43772 97.5981 134.8416 0012611 89.7647 270.5022 14.99870433232668 RANGE-A 1 43773U 18099R 23068.14527259 .00007237 00000-0 62323-3 0 9993 2 43773 97.5773 130.7712 0014087 94.4151 265.8681 14.97562237232581 MOVE-II 1 43780U 18099Y 23068.75279363 .00022819 00000-0 17684-2 0 9990 2 43780 97.5828 135.0002 0012343 125.1165 235.1219 15.01351526232805 SNUSat 2 1 43782U 18099AA 23067.40791081 .00009475 00000-0 79408-3 0 9995 2 43782 97.5876 132.2007 0013665 93.9548 266.3238 14.98539908232533 SnugLite 1 43784U 18099AC 23068.72922049 .00014021 00000-0 11568-2 0 9998 2 43784 97.5829 133.1124 0016331 97.4343 262.8737 14.99011127232767 ITASat 1 1 43786U 18099AE 23068.16735037 .00009335 00000-0 78505-3 0 9994 2 43786 97.5867 133.4522 0014884 100.2588 260.0314 14.98396203232661 EAGLET 1 1 43790U 18099AJ 23067.92043603 .00011531 00000-0 97288-3 0 9993 2 43790 97.5869 133.7366 0014416 104.4736 255.8087 14.98216926232368 ESEO 1 43792U 18099AL 23068.12527416 .00008177 00000-0 71160-3 0 9990 2 43792 97.5822 132.6779 0014735 101.2129 259.0750 14.97104723232419 CSIM 1 43793U 18099AM 23068.74623310 .00022046 00000-0 16832-2 0 9994 2 43793 97.5830 136.1730 0017549 103.6891 256.6289 15.01865879232640 Astrocast 0.1 1 43798U 18099AS 23068.72873715 .00020376 00000-0 16073-2 0 9994 2 43798 97.5902 135.5925 0015381 73.7067 286.5848 15.00666450232846 JO-97 1 43803U 18099AX 23068.40006846 .00013178 00000-0 10763-2 0 9991 2 43803 97.5862 133.5731 0016463 95.7633 264.5467 14.99415243232736 Suomi 100 1 43804U 18099AY 23068.17680489 .00011603 00000-0 95543-3 0 9998 2 43804 97.5822 133.2051 0015157 101.5225 258.7701 14.99148671232708 Al Farabi 2 1 43805U 18099AZ 23068.41963062 .00014341 00000-0 11411-2 0 9990 2 43805 97.5896 134.3474 0012334 90.8229 269.4405 15.00449235232780 CHOMPTT 1 43855U 18104G 23068.48696802 .00044645 00000-0 13155-2 0 9991 2 43855 85.0299 233.6901 0013277 337.0261 23.0392 15.34759317235257 ISAT 1 43879U 18111D 23068.67813966 .00017194 00000-0 13567-2 0 9994 2 43879 97.6498 334.5824 0014235 120.8770 239.3856 15.00707525227385 UWE-4 1 43880U 18111E 23068.66358166 .00015206 00000-0 12011-2 0 9996 2 43880 97.6489 335.4281 0016213 143.9347 216.2974 15.00671536227431 Sparrow 1 43881U 18111F 23068.24113897 .00013627 00000-0 10676-2 0 9991 2 43881 97.6557 335.4139 0013456 164.0000 196.1652 15.01042940227381 Lume 1 1 43908U 18111AJ 23068.22041645 .00048765 00000-0 12383-2 0 9998 2 43908 97.1566 313.3363 0013773 195.5349 164.5476 15.39402344233971 FO-99 1 43937U 19003F 23068.52941401 .00078101 00000-0 18009-2 0 9991 2 43937 97.1013 97.6434 0013461 279.0173 80.9552 15.42199033230636 AstroCast 0.2 1 44083U 19018F 23068.71525955 .00087632 00000-0 23133-2 0 9996 2 44083 97.2825 128.4172 0007259 249.7066 110.3399 15.38103048219063 AISTechSat 3 1 44103U 19018AB 23067.34065198 .00040432 00000-0 11808-2 0 9998 2 44103 97.2697 126.8345 0008823 271.3207 156.9171 15.35162478219000 AISat 1 1 44104U 19018AC 23068.76491391 .00034621 00000-0 78149-3 0 9999 2 44104 97.3758 158.6298 0044057 258.6816 100.9479 15.42090198220372 Prox-1 1 44339U 19036A 23068.76698344 .00017736 00000-0 37469-2 0 9993 2 44339 24.0016 315.9079 0010054 251.4540 108.4860 14.57819248197152 Move-IIb 1 44398U 19038N 23068.65989625 .00083004 00000-0 28034-2 0 9992 2 44398 97.6581 47.5287 0012887 289.5236 70.4612 15.30262734203390 SONATE 1 44400U 19038Q 23068.44167104 .00019739 00000-0 94758-3 0 9994 2 44400 97.6758 44.2662 0019498 302.2090 57.7253 15.18732993203087 BeeSat 9 1 44412U 19038AC 23068.50378483 .00047718 00000-0 19317-2 0 9993 2 44412 97.6680 46.3030 0014286 301.2573 58.7264 15.24436468202943 JAISAT-1 1 44419U 19038F 23068.73867102 .00048063 00000-0 19225-2 0 9998 2 44419 97.6683 47.5738 0013196 296.5283 63.4601 15.24850426203352 Taurus 1 1 44530U 19059C 23068.74915656 .00008998 00000-0 23829-2 0 9992 2 44530 98.5471 175.1452 0012463 41.4191 318.8057 14.48937177184234 Duchifat 3 1 44854U 19089C 23068.79014313 .00016315 00000-0 11521-2 0 9997 2 44854 36.9677 324.5250 0008283 242.3230 167.0738 15.04264643177858 OPS-SAT 1 44878U 19092F 23068.77007852 .00061233 00000-0 21989-2 0 9993 2 44878 97.4777 256.6219 0010033 132.3565 227.8526 15.28395026178578 TO-108 1 44881U 19093C 23068.80312241 .00002438 00000-0 31157-3 0 9994 2 44881 97.8679 148.9409 0015688 45.7302 314.5199 14.82237476174072 FloripaSat 1 1 44885U 19093G 23068.78365799 .00008237 00000-0 97419-3 0 9997 2 44885 97.8738 151.1005 0014467 50.0255 310.2294 14.84801645174199 RS-44 1 44909U 19096E 23068.69770435 .00000013 00000-0 35411-5 0 9994 2 44909 82.5195 54.0449 0218511 59.7363 302.5168 12.79718866149481 BY70-2 1 45857U 20042B 23068.78336999 .00035073 00000-0 40030-2 0 9997 2 45857 97.9307 148.6397 0008778 326.9178 33.1655 14.85951628144753 UPMSat 2 1 46276U 20061E 23068.18906467 .00016066 00000-0 71808-3 0 9990 2 46276 97.3581 137.9382 0001010 37.0801 323.0504 15.21405913139072 AmicalSat 1 46287U 20061R 23068.12768072 .00040528 00000-0 20381-2 0 9993 2 46287 97.4124 136.6645 0003389 91.9241 268.2381 15.17109744138524 SALSAT 1 46495U 20068K 23067.80633787 .00012522 00000-0 84848-3 0 9991 2 46495 97.7596 14.8973 0017692 99.8004 260.5222 15.06482878133959 BY70-3 1 46839U 20079N 23068.81375103 .00326333 00000-0 20753-2 0 9994 2 46839 97.1566 145.5305 0001629 200.0151 253.8821 15.75533543131382 CAPE 3 1 47309U 21002A 23068.76342404 .00053135 00000-0 15753-2 0 9997 2 47309 60.6787 81.5845 0033948 124.0477 236.3846 15.33907195118995 AO-109 1 47311U 21002C 23068.73272360 .00044893 00000-0 13709-2 0 9990 2 47311 60.6815 79.3156 0032156 120.9581 239.4678 15.33101100119014 MiTEE 1 1 47314U 21002F 23068.70254195 .00170762 00000-0 27772-2 0 9996 2 47314 60.6743 59.2492 0027474 106.9449 253.4666 15.51355051119368 ExoCube 2 1 47319U 21002L 23068.75254265 .00043550 00000-0 13555-2 0 9992 2 47319 60.6799 81.0157 0032734 122.9286 237.4961 15.32490584118940 UVSQ-SAT 1 47438U 21006AB 23068.14955090 .00027496 00000-0 12432-2 0 9999 2 47438 97.3987 126.8654 0011749 77.8248 282.4302 15.20837027117422 YUSAT 1 1 47439U 21006AC 23068.76871970 .00040605 00000-0 17494-2 0 9992 2 47439 97.3995 127.9161 0011009 75.0311 285.2144 15.22407251117549 SOMP 2b 1 47445U 21006AJ 23068.15950564 .00026541 00000-0 12215-2 0 9998 2 47445 97.3962 126.2699 0011601 81.8602 278.3948 15.20235589117405 IDEASSat 1 47458U 21006AX 23068.10900800 .00042478 00000-0 19687-2 0 9992 2 47458 97.4050 126.9494 0010819 81.2346 279.0114 15.19894487117383 CubeSX-Sirius-HSE 1 47951U 21022V 23068.77987032 .00019218 00000-0 11441-2 0 9999 2 47951 97.5093 327.8489 0018685 322.0095 108.9947 15.11114584108009 CubeSX-HSE 1 47952U 21022W 23068.75873075 .00018645 00000-0 11084-2 0 9995 2 47952 97.5084 327.8668 0018856 322.0043 116.9674 15.11169988108006 KSU-Cubesat 1 47954U 21022Y 23068.77841613 .00024979 00000-0 14585-2 0 9998 2 47954 97.5088 328.1451 0017824 321.8801 38.1167 15.11772355107749 GRBAlpha 1 47959U 21022AD 23068.75130686 .00018637 00000-0 11063-2 0 9994 2 47959 97.5083 327.9249 0018674 322.4579 122.8942 15.11228163106827 Orbicraft-Zorkiy 1 47960U 21022AE 23068.81372157 .00020226 00000-0 11847-2 0 9991 2 47960 97.5112 328.2924 0018401 321.4499 124.9537 15.11696466107531 STECCO 1 47962U 21022AG 23068.75570029 .00033042 00000-0 17226-2 0 9991 2 47962 97.5086 329.8838 0013034 315.6377 129.6588 15.15823241106951 DO-111 1 47963U 21022AH 23067.18118740 .00116961 00000-0 37379-2 0 9999 2 47963 97.5105 332.4383 0007862 315.2652 44.7954 15.31943910106995 MO-110 1 47964U 21022AJ 23068.77075490 .00042001 00000-0 21463-2 0 9990 2 47964 97.5092 330.3709 0014437 309.8361 50.1601 15.16452767106989 FEES 1 48082U 21022AL 23068.78194490 .00064361 00000-0 29770-2 0 9997 2 48082 97.5092 330.8915 0010018 308.4633 51.5703 15.19850382106721 CSS 1 48274U 21035A 23068.84799630 .00028173 00000-0 31647-3 0 9996 2 48274 41.4751 41.8295 0001888 40.3328 44.4048 15.61982939106298 TUBIN 1 48900U 21059X 23068.81181381 .00016650 00000-0 83767-3 0 9990 2 48900 97.5816 202.0212 0008995 264.0196 254.3700 15.17265654 94092 IT-SPINS 1 49017U 21013G 23068.75177839 .00057858 00000-0 16514-2 0 9996 2 49017 51.5947 203.8669 0008711 314.2031 45.8235 15.35434689 94399 LEDSAT 1 49069U 21073D 23068.73300154 .00020443 00000-0 11803-2 0 9991 2 49069 97.4924 141.3894 0026361 104.0345 256.3818 15.12056792 85868 CUTE 1 49263U 21088D 23068.73118122 .00020958 00000-0 14190-2 0 9998 2 49263 97.5555 136.3475 0018089 239.6257 120.3183 15.06384614 79306 TeikyoSat 4 1 49396U 21102B 23068.73535715 .00004629 00000-0 35915-3 0 9999 2 49396 97.5307 123.7680 0016678 77.0307 283.2779 15.01733528 72847 Z-Sat 1 49399U 21102E 23068.78473721 .00007727 00000-0 56023-3 0 9990 2 49399 97.4970 124.9163 0023239 50.5690 309.7588 15.03985295 72941 KOSEN 1 1 49402U 21102H 23068.76739538 .00011236 00000-0 78104-3 0 9998 2 49402 97.4914 125.2565 0022018 40.7629 319.5241 15.05479013 72999 HO-113 1 50466U 21131B 23068.79660841 .00001562 00000-0 52311-3 0 9998 2 50466 98.5564 150.6510 0005533 84.9848 275.1971 14.38730904 63061 Tevel-3 1 50988U 22002E 23068.72842443 .00032842 00000-0 14940-2 0 9998 2 50988 97.4463 136.6230 0008540 214.7387 241.5637 15.20618080 63621 Tevel-8 1 50989U 22002F 23068.80858244 .00032881 00000-0 14981-2 0 9992 2 50989 97.4483 136.7492 0008799 213.2394 241.1749 15.20562666 63632 Tevel-5 1 50998U 22002Q 23068.78734164 .00033993 00000-0 15161-2 0 9999 2 50998 97.4454 136.9593 0010013 210.1295 245.9915 15.21275764 63652 Tevel-6 1 50999U 22002R 23068.79116897 .00034018 00000-0 15169-2 0 9995 2 50999 97.4456 136.9599 0009943 209.7756 274.5012 15.21282793 63653 Tevel-1 1 51013U 22002AF 23068.01633196 .00032130 00000-0 14655-2 0 9996 2 51013 97.4466 135.8748 0008458 216.1856 265.4926 15.20533416 63517 Grizu-263a 1 51025U 22002AT 23068.73828584 .00106732 00000-0 35747-2 0 9990 2 51025 97.4612 139.7646 0010519 213.9737 146.0831 15.30453560 63776 NO-116 1 51031U 22002AZ 23068.12026779 .00092080 00000-0 36485-2 0 9996 2 51031 97.4577 137.8969 0011076 217.1599 142.8873 15.24970781 63616 IRIS-A 1 51044U 22002BN 23068.16463912 .00017697 00000-0 89563-3 0 9995 2 51044 97.4468 135.2510 0007940 220.1291 139.9356 15.17047613 63480 Tevel-7 1 51062U 22002CG 23068.81039743 .00033012 00000-0 15037-2 0 9991 2 51062 97.4473 136.7273 0008700 213.6281 240.6190 15.20571463 63631 Tevel-4 1 51063U 22002CH 23068.74800039 .00032793 00000-0 14955-2 0 9991 2 51063 97.4479 136.6559 0008521 214.5684 240.5403 15.20532973 63620 Tevel-2 1 51069U 22002CP 23068.32963975 .00032494 00000-0 14795-2 0 9990 2 51069 97.4472 136.2045 0008351 215.5671 208.7949 15.20590041 63567 DELFI-PQ 1 51074U 22002CU 23068.64996531 .00070857 00000-0 26186-2 0 9997 2 51074 97.4711 140.1929 0011003 242.7468 117.2651 15.27392731 63767 SO-115 1 51080U 22002DA 23067.16095766 .00034976 00000-0 14639-2 0 9992 2 51080 97.4727 137.9684 0011035 251.4361 108.5677 15.23424300 63481 SO-114 1 51081U 22002DB 23067.42033110 .00034722 00000-0 14485-2 0 9995 2 51081 97.4719 138.1902 0011427 250.4580 109.5423 15.23533340 63526 OreSat0 1 52017U 22026K 23068.77063943 .00036418 00000-0 16334-2 0 9996 2 52017 97.5113 71.1323 0026844 74.5244 285.8953 15.20785013 54416 Planetum 1 1 52738U 22057G 23068.79686745 .00029089 00000-0 14735-2 0 9992 2 52738 97.5272 185.1000 0006892 336.1217 23.9695 15.16917825 43570 Foresail-1 1 52766U 22057AL 23068.83487534 .00018685 00000-0 94537-3 0 9992 2 52766 97.5368 185.9429 0011816 316.0582 161.3027 15.17015018 43608 SNUGLITE 2 1 52899U 22065F 23067.89578285 .00005499 00000-0 11813-2 0 9991 2 52899 98.0513 215.6386 0008484 163.4109 196.7370 14.58935243 36231 CTIM 1 52950U 22074G 23068.73222376 .00064190 00000-0 19143-2 0 9997 2 52950 44.9677 191.4712 0011118 297.9508 62.0282 15.33804545 38286 IO-117 1 53106U 22080B 23066.10611744 -.00000003 00000-0 00000-0 0 9992 2 53106 70.1818 355.1858 0008360 210.1011 149.9169 6.42557127 15194 SelfieSat 1 53951U 22057BA 23068.78034732 .00037818 00000-0 18686-2 0 9990 2 53951 97.5321 185.4634 0009102 327.3742 32.6928 15.17714238 43582 FO-118 1 54684U 22167C 23068.80870883 .00021934 00000-0 13083-2 0 9992 2 54684 97.5439 207.3578 0014335 318.0571 145.9515 15.11076896 13658 HO-119 1 54816U 21035C 23068.90325559 .01358750 10894-2 18429-2 0 9991 2 54816 41.4827 31.5312 0021142 167.2530 193.0062 16.05194510 12771 /EX
